Chicago DuPage, IL

7:39 PM CDT on March 22, 2017 (GMT -0500)
Du Page

Weather History for KDPA - April, 2013

Change the Weather History Date:

Thursday, April 4, 2013

  Actual Average Record
Temperature  
Mean Temperature 41 °F 45 °F  
Max Temperature 58 °F 56 °F 76 °F (2010)
Min Temperature 23 °F 34 °F 23 °F (2013)
Degree Days  
Heating Degree Days 24 20  
Month to date heating degree days 120 82  
Since 1 July heating degree days 5904 5673  
Cooling Degree Days 0 0  
Month to date cooling degree days 0 0  
Year to date cooling degree days 0 0  
Moisture  
Dew Point 24 °F    
Average Humidity 52    
Maximum Humidity 77    
Minimum Humidity 28    
Precipitation  
Precipitation 0.00 in 0.08 in 0.62 in (2003)
Month to date precipitation 0.00 0.34  
Year to date precipitation 6.96 5.43  
Sea Level Pressure  
Sea Level Pressure 30.13 in    
Wind  
Wind Speed 7 mph (WSW)    
Max Wind Speed 17 mph    
Max Gust Speed 23 mph    
Visibility 10 miles    
Events      
T = Trace of Precipitation, MM = Missing Value Source: NWS Daily Summary

Daily Weather History Graph

Daily Weather History Graph

Search for Another Location

Airport or City:

Trip Planner

Search our weather history database for the weather conditions in past years. The results will help you decide how hot, cold, wet, or windy it might be!

Date:

Astronomy

Apr. 04, 2013 Rise Set
Actual Time 6:30 AM CDT 7:22 PM CDT
Civil Twilight 6:02 AM CDT 7:50 PM CDT
Nautical Twilight 5:28 AM CDT 8:24 PM CDT
Astronomical Twilight 4:53 AM CDT 8:59 PM CDT
Moon 3:02 AM CDT (4/4) 1:35 PM CDT (4/4)
Length of Visible Light 13h 48m
Length of Day
12h 51m
Waning Crescent, 33% of the Moon is Illuminated
Apr 4
Waning Crescent
Apr 10
New
Apr 18
First Quarter
Apr 25
Full
May 2
Last Quarter

Hourly Weather History & Observations

Time (CDT) Temp. Windchill Dew Point Humidity Pressure Visibility Wind Dir Wind Speed Gust Speed Precip Events Conditions
12:52 AM 27.0 °F 20.5 °F 16.0 °F 63% 30.32 in 10.0 mi SSE 5.8 mph - N/A   Clear
1:52 AM 27.0 °F - 18.0 °F 69% 30.30 in 10.0 mi Calm Calm - N/A   Clear
2:52 AM 26.1 °F - 19.0 °F 75% 30.27 in 10.0 mi Calm Calm - N/A   Clear
3:52 AM 27.0 °F 21.6 °F 18.0 °F 69% 30.26 in 10.0 mi South 4.6 mph - N/A   Clear
4:52 AM 27.0 °F - 19.0 °F 72% 30.25 in 10.0 mi Calm Calm - N/A   Clear
5:52 AM 27.0 °F 21.6 °F 19.9 °F 75% 30.23 in 10.0 mi South 4.6 mph - N/A   Clear
6:52 AM 24.1 °F - 18.0 °F 77% 30.23 in 10.0 mi Calm Calm - N/A   Clear
7:52 AM 30.9 °F 27.5 °F 24.1 °F 76% 30.23 in 10.0 mi South 3.5 mph - N/A   Clear
8:52 AM 37.0 °F 31.6 °F 21.9 °F 54% 30.22 in 10.0 mi SSW 6.9 mph - N/A   Clear
9:52 AM 44.1 °F 37.7 °F 19.0 °F 37% 30.19 in 10.0 mi SW 12.7 mph - N/A   Clear
10:52 AM 48.0 °F - 19.0 °F 32% 30.17 in 10.0 mi SW 11.5 mph 20.7 mph N/A   Clear
11:52 AM 50.0 °F - 19.9 °F 31% 30.14 in 10.0 mi SW 13.8 mph 17.3 mph N/A   Clear
12:52 PM 52.0 °F - 21.9 °F 31% 30.11 in 10.0 mi West 11.5 mph - N/A   Clear
1:52 PM 54.0 °F - 21.9 °F 29% 30.08 in 10.0 mi West 10.4 mph 16.1 mph N/A   Clear
2:52 PM 57.0 °F - 24.1 °F 28% 30.05 in 10.0 mi West 12.7 mph 17.3 mph N/A   Clear
3:52 PM 57.0 °F - 25.0 °F 29% 30.02 in 10.0 mi West 11.5 mph 20.7 mph N/A   Clear
4:52 PM 57.0 °F - 25.0 °F 29% 30.01 in 10.0 mi West 10.4 mph - N/A   Clear
5:52 PM 55.9 °F - 27.0 °F 33% 30.00 in 10.0 mi WSW 8.1 mph - N/A   Clear
6:52 PM 55.0 °F - 28.9 °F 37% 30.00 in 10.0 mi West 9.2 mph - N/A   Mostly Cloudy
7:52 PM 48.0 °F - 30.0 °F 50% 29.99 in 10.0 mi West 6.9 mph - N/A   Clear
8:52 PM 46.0 °F 43.1 °F 30.9 °F 56% 29.99 in 10.0 mi SW 5.8 mph - N/A   Clear
9:52 PM 43.0 °F 38.8 °F 32.0 °F 65% 30.00 in 10.0 mi West 6.9 mph - N/A   Clear
10:52 PM 44.1 °F 40.1 °F 33.1 °F 65% 30.00 in 10.0 mi WNW 6.9 mph - N/A   Clear
11:52 PM 44.1 °F 40.1 °F 33.1 °F 65% 30.01 in 10.0 mi NNW 6.9 mph - N/A   Clear